Location: Stanford
(52.2833°N, 2.4333°W)
Time: 23:55:31
(UTC+00:00)

CZ-2D R/B - Pass Details

Date: 22 January 2021
Orbit: 520 x 538 km, 97.4° (Epoch: 01 March)

Event Time Altitude Azimuth Distance (km) Brightness Sun altitude
Rises 18:05:10 0° 161° (SSE) 2,673 6.8 -12.9°
Reaches altitude 10° 18:07:17 10° 160° (SSE) 1,784 5.9 -13.2°
Maximum altitude 18:11:08 77° 75° (ENE) 552 3.1 -13.8°
Drops below altitude 10° 18:14:59 10° 349° (N) 1,789 5.9 -14.3°
Sets 18:17:06 0° 348° (NNW) 2,681 6.8 -14.7°
